Location: Baumgarten
(49.0970°N, 12.7493°E)
Time: 18:08:17
(UTC+00:00)

EO 1 Delta rocket - Pass Details

Date: 05 July 2020
Orbit: 697 x 1792 km, 95.4° (Epoch: 12 August)

Event Time Altitude Azimuth Distance (km) Brightness Sun altitude
Rises 21:44:04 0° 13° (NNE) 3,180 8.2 -15.5°
Reaches altitude 10° 21:46:14 10° 18° (NNE) 2,317 7.3 -15.6°
Maximum altitude 21:51:12 58° 98° (E) 1,011 4.4 -15.9°
Enters shadow 21:54:44 24° 168° (SSE) 1,863 5.4 -16.1°
